Starlink 32696

operational
NORAD ID: 62310 Int'l Des: 2024-239 Owner: SPXS Country: US Constellation: starlink
LEOCIRCULAR

关于 Starlink 32696

正在加载描述...

实时位置

正在加载3D地球...

即将过境

高度历史

Altitude vs Time

uPlot chart will show altitude changes over time

两行轨道根数

1 62310U 24239K 25259.44925156 .00036603 00000-0 12421-2 0 9991
2 62310 53.1593 283.4845 0001361 75.6344 284.4808 15.30195099 42703
Epoch: Sep 16, 2025 • Age: 48 hours

当前状态

高度 493.0 km
速度 7.62 km/s
星下点 -50.32°S, 46.83°E
发射日期 Dec 13, 2024
运行时间 0.7 years
类型 internet

技术详情

分类 Payload
质量 730.00 kg
干质量 700.00 kg
总质量 730.00 kg
长度 0.30 m
直径 4.10 m
跨度 29.00 m
形状 Box + pan
制造商 SPXS
平台类型 Starlink V2M
阶段状态 In Orbit
所有者/国家 SPXS/US

大型星座

Loading constellations...